Orbital Elements at Epoch 2459000.5 (2020-May-31.0) TDB
Reference: JPL 24 (heliocentric ecliptic J2000)
Element | Value | Uncertainty (1-sigma) | Units |
e | .1057757060610551 | 3.583e-08 | |
a | 2.678849326915491 | 1.5441e-08 | au |
q | 2.395492147929823 | 9.6187e-08 | au |
i | 15.3644504933341 | 4.4542e-06 | deg |
node | 155.8948716991779 | 1.6254e-05 | deg |
peri | 154.2913856823158 | 2.7727e-05 | deg |
M | 188.4279582085781 | 2.3703e-05 | deg |
tp | 2459763.746596808637 (2022-Jul-03.24659681) | 0.00010655 | TDB |
period | 1601.477559992801 4.38 | 1.3847e-05 3.791e-08 | d yr |
n | .2247924098303434 | 1.9436e-09 | deg/d |
Q | 2.962206505901159 | 1.7075e-08 | au |
|
| | Orbit Determination Parameters
Additional Information
|